Weather History for Ely, MN

Change the Weather History Date:

Sunday, July 21, 2013

  Actual Average Record
Temperature  
Mean Temperature 55 °F -  
Max Temperature 71 °F 74 °F 89 °F (2014)
Min Temperature 39 °F 52 °F 39 °F (2013)
Degree Days  
Heating Degree Days 10    
Growing Degree Days 5 (Base 50)    
Moisture  
Dew Point 45 °F    
Average Humidity 66    
Maximum Humidity 100    
Minimum Humidity 41    
Precipitation  
Precipitation 0.00 in - - ()
Sea Level Pressure  
Sea Level Pressure 29.95 in    
Wind  
Wind Speed 3 mph (SSE)    
Max Wind Speed 10 mph    
Max Gust Speed -    
Visibility 10 miles    
Events      
Averages and records for this station are not official NWS values.
T = Trace of Precipitation, MM = Missing Value Source: NWS Daily Summary

Daily Weather History Graph

Daily Weather History Graph

Search for Another Location

Airport:

Trip Planner

Search our weather history database for the weather conditions in past years. The results will help you decide how hot, cold, wet, or windy it might be!

Date:

Astronomy

Jul. 21, 2013 Rise Set
Actual Time 5:31 AM CDT 8:55 PM CDT
Civil Twilight 4:52 AM CDT 9:33 PM CDT
Nautical Twilight 4:02 AM CDT 10:23 PM CDT
Astronomical Twilight 2:56 AM CDT 11:29 PM CDT
Moon 7:50 PM CDT (7/21) 4:18 AM CDT (7/21)
Length of Visible Light 16h 40m
Length of Day
15h 24m
Waxing Gibbous, 98% of the Moon is Illuminated
Jul 21
Waxing Gibbous
Jul 22
Full
Jul 29
Last Quarter
Aug 6
New
Aug 14
First Quarter

Hourly Weather History & Observations

Time (CDT) Temp. Dew Point Humidity Pressure Visibility Wind Dir Wind Speed Gust Speed Precip Events Conditions
12:13 AM 48.2 °F 44.6 °F 87% 30.03 in 10.0 mi Calm Calm - N/A   Clear
12:33 AM 48.2 °F 44.6 °F 87% 30.02 in 10.0 mi Calm Calm - N/A   Clear
12:52 AM 46.4 °F 44.6 °F 93% 30.02 in 10.0 mi Calm Calm - N/A   Clear
1:13 AM 48.2 °F 44.6 °F 87% 30.03 in 10.0 mi Calm Calm - N/A   Clear
1:33 AM 44.6 °F 42.8 °F 93% 30.02 in 10.0 mi Calm Calm - N/A   Clear
1:52 AM 42.8 °F 42.8 °F 100% 30.02 in 10.0 mi Calm Calm - N/A   Clear
2:13 AM 44.6 °F 42.8 °F 93% 30.02 in 10.0 mi Calm Calm - N/A   Clear
2:33 AM 42.8 °F 42.8 °F 100% 30.02 in 10.0 mi Calm Calm - N/A   Clear
2:53 AM 44.6 °F 42.8 °F 93% 30.03 in 10.0 mi Calm Calm - N/A   Clear
3:13 AM 42.8 °F 42.8 °F 100% 30.02 in 10.0 mi Calm Calm - N/A   Clear
3:32 AM 41.0 °F 39.2 °F 93% 30.02 in 10.0 mi Calm Calm - N/A   Clear
3:53 AM 41.0 °F 41.0 °F 100% 30.02 in 10.0 mi Calm Calm - N/A   Clear
4:13 AM 41.0 °F 39.2 °F 93% 30.02 in 10.0 mi Calm Calm - N/A   Clear
4:32 AM 41.0 °F 39.2 °F 93% 30.01 in 10.0 mi Calm Calm - N/A   Clear
4:53 AM 41.0 °F 39.2 °F 93% 30.01 in 3.0 mi Calm Calm - N/A   Clear
5:13 AM 39.2 °F 39.2 °F 100% 30.00 in 10.0 mi Calm Calm - N/A   Clear
5:32 AM 39.2 °F 39.2 °F 100% 30.00 in 4.0 mi Calm Calm - N/A   Clear
5:53 AM 41.0 °F 39.2 °F 93% 30.01 in 10.0 mi Calm Calm - N/A   Clear
6:13 AM 41.0 °F 39.2 °F 93% 30.01 in 10.0 mi Calm Calm - N/A   Clear
6:33 AM 42.8 °F 42.8 °F 100% 30.01 in 10.0 mi Calm Calm - N/A   Clear
6:53 AM 44.6 °F 44.6 °F 100% 30.01 in 10.0 mi Calm Calm - N/A   Clear
7:13 AM 48.2 °F 44.6 °F 87% 30.01 in 10.0 mi Calm Calm - N/A   Clear
7:33 AM 51.8 °F 44.6 °F 76% 30.01 in 10.0 mi Calm Calm - N/A   Clear
7:53 AM 55.4 °F 44.6 °F 67% 30.01 in 10.0 mi SE 5.8 mph - N/A   Clear
8:13 AM 55.4 °F 44.6 °F 67% 30.01 in 10.0 mi SSE 6.9 mph - N/A   Clear
8:33 AM 57.2 °F 42.8 °F 59% 30.01 in 10.0 mi SSE 10.4 mph - N/A   Clear
8:53 AM 59.0 °F 44.6 °F 59% 30.01 in 10.0 mi SE 8.1 mph - N/A   Clear
9:13 AM 60.8 °F 44.6 °F 55% 30.01 in 10.0 mi SE 9.2 mph - N/A   Clear
9:32 AM 62.6 °F 46.4 °F 55% 30.01 in 10.0 mi SSE 6.9 mph - N/A   Clear
9:53 AM 62.6 °F 46.4 °F 55% 30.01 in 10.0 mi SSE 6.9 mph - N/A   Clear
10:13 AM 62.6 °F 46.4 °F 55% 30.00 in 10.0 mi SSE 6.9 mph - N/A   Clear
10:33 AM 64.4 °F 46.4 °F 52% 29.99 in 10.0 mi SE 5.8 mph - N/A   Clear
10:53 AM 64.4 °F 46.4 °F 52% 29.99 in 10.0 mi SSE 5.8 mph - N/A   Clear
11:12 AM 66.2 °F 46.4 °F 49% 29.98 in 10.0 mi ESE 8.1 mph - N/A   Clear
11:33 AM 66.2 °F 46.4 °F 49% 29.97 in 10.0 mi SSE 6.9 mph - N/A   Scattered Clouds
11:53 AM 66.2 °F 46.4 °F 49% 29.97 in 10.0 mi SE 6.9 mph - N/A   Mostly Cloudy
12:11 PM 66.2 °F 46.4 °F 49% 29.98 in 10.0 mi ESE 8.1 mph - N/A   Mostly Cloudy
12:33 PM 66.2 °F 46.4 °F 49% 29.97 in 10.0 mi SE 8.1 mph - N/A   Mostly Cloudy
12:53 PM 66.2 °F 46.4 °F 49% 29.97 in 10.0 mi South 8.1 mph - N/A   Overcast
1:13 PM 66.2 °F 48.2 °F 52% 29.96 in 10.0 mi South 6.9 mph - N/A   Overcast
1:33 PM 69.8 °F 48.2 °F 46% 29.95 in 10.0 mi SSE 5.8 mph - N/A   Mostly Cloudy
1:53 PM 69.8 °F 48.2 °F 46% 29.94 in 10.0 mi South 9.2 mph - N/A   Scattered Clouds
2:13 PM 69.8 °F 46.4 °F 43% 29.94 in 10.0 mi South 6.9 mph - N/A   Scattered Clouds
2:32 PM 69.8 °F 48.2 °F 46% 29.93 in 10.0 mi SSE 6.9 mph - N/A   Mostly Cloudy
2:53 PM 69.8 °F 48.2 °F 46% 29.93 in 10.0 mi SSE 5.8 mph - N/A   Scattered Clouds
3:13 PM 71.6 °F 48.2 °F 43% 29.92 in 10.0 mi SE 8.1 mph - N/A   Scattered Clouds
3:32 PM 71.6 °F 46.4 °F 41% 29.92 in 10.0 mi SSE 4.6 mph - N/A   Mostly Cloudy
3:53 PM 71.6 °F 50.0 °F 46% 29.91 in 10.0 mi SSW 4.6 mph - N/A   Scattered Clouds
4:13 PM 71.6 °F 48.2 °F 43% 29.91 in 10.0 mi Calm Calm - N/A   Scattered Clouds
4:32 PM 69.8 °F 48.2 °F 46% 29.91 in 10.0 mi South 5.8 mph - N/A   Scattered Clouds
4:53 PM 69.8 °F 48.2 °F 46% 29.90 in 10.0 mi South 4.6 mph - N/A   Scattered Clouds
5:13 PM 69.8 °F 48.2 °F 46% 29.89 in 10.0 mi SSE 9.2 mph - N/A   Scattered Clouds
5:32 PM 71.6 °F 48.2 °F 43% 29.88 in 10.0 mi SSE 10.4 mph - N/A   Clear
5:53 PM 68.0 °F 48.2 °F 49% 29.88 in 10.0 mi SSE 9.2 mph - N/A   Clear
6:12 PM 69.8 °F 48.2 °F 46% 29.87 in 10.0 mi SSE 9.2 mph - N/A   Clear
6:33 PM 69.8 °F 48.2 °F 46% 29.87 in 10.0 mi South 8.1 mph - N/A   Clear
6:52 PM 69.8 °F 48.2 °F 46% 29.87 in 10.0 mi SSE 8.1 mph - N/A   Clear
7:13 PM 68.0 °F 48.2 °F 49% 29.87 in 10.0 mi SSE 10.4 mph - N/A   Clear
7:33 PM 66.2 °F 48.2 °F 52% 29.86 in 10.0 mi SSE 9.2 mph - N/A   Clear
7:52 PM 66.2 °F 48.2 °F 52% 29.86 in 10.0 mi SSE 6.9 mph - N/A   Clear
8:12 PM 64.4 °F 48.2 °F 56% 29.85 in 10.0 mi SE 8.1 mph - N/A   Clear
8:33 PM 62.6 °F 46.4 °F 55% 29.85 in 10.0 mi SE 9.2 mph - N/A   Clear
8:52 PM 60.8 °F 46.4 °F 59% 29.86 in 10.0 mi SSE 5.8 mph - N/A   Clear
9:12 PM 60.8 °F 46.4 °F 59% 29.86 in 10.0 mi SSE 4.6 mph - N/A   Clear
9:33 PM 59.0 °F 46.4 °F 63% 29.86 in 10.0 mi SSE 8.1 mph - N/A   Clear
9:52 PM 57.2 °F 46.4 °F 67% 29.86 in 10.0 mi SSE 4.6 mph - N/A   Clear
10:12 PM 57.2 °F 44.6 °F 63% 29.86 in 10.0 mi SE 6.9 mph - N/A   Clear
10:33 PM 55.4 °F 42.8 °F 63% 29.84 in 10.0 mi SE 9.2 mph - N/A   Clear
10:53 PM 55.4 °F 42.8 °F 63% 29.84 in 10.0 mi SE 8.1 mph - N/A   Clear
11:12 PM 55.4 °F 42.8 °F 63% 29.84 in 10.0 mi SSE 4.6 mph - N/A   Scattered Clouds
11:33 PM 55.4 °F 42.8 °F 63% 29.84 in 10.0 mi SSE 5.8 mph - N/A   Mostly Cloudy
11:53 PM 53.6 °F 42.8 °F 67% 29.82 in 10.0 mi SSE 6.9 mph - N/A   Scattered Clouds